sat.trackr.live / text

‹ back to catalog

STARLINK-32555

NORAD 61918 · 2024-207G

PAYLOAD ACTIVE UNKNOWN

§ Identity

Operator
Country
US
Launch date
2024-11-11
Launch site
AFETR
Launch vehicle
Mass (kg)
RCS (m²)

Purposes: comms

External: N2YO · Heavens-Above · Gunter

§ Orbital elements

Epoch: 2026-09-21T08:49:57.222624Z

Period
94.26 min
Inclination
43.0057°
Eccentricity
0.0001877
Mean motion
15.27614360 rev/d
Perigee alt
481.7 km
Apogee alt
484.2 km
Semi-major
6,861.1 km
B*
5.1706e-4
RAAN
260.5367°
Arg perigee
285.7186°
Mean anomaly
74.3458°
Rev number
10,460

§ Raw data

STARLINK-325551 61918U 24207G   26264.36802341  .00014008  00000+0  51706-3 0  99912 61918  43.0057 260.5367 0001877 285.7186  74.3458 15.27614360104602

JSON: /api/v1/satellites/61918 · /tle

For live sub-satellite position, see the globe view (requires WebGL).

§ Visibility from observer

Set your observer location to see the next 7 days of passes ≥ 10°. The values pass through the URL so the page stays shareable.

No JS? Fill the form by hand. The geolocation button needs JavaScript.